Location: Peterborough
(44.3091°N, 78.3197°W)
Time: 10:00:58
(UTC-04:00)

A-11 Canister half - Pass Details

Date: 20 September 2024
Orbit: 1515 x 1684 km, 47.2° (Epoch: 02 October)

Event Time Altitude Azimuth Distance (km) Brightness Sun altitude
Rises 20:29:01 0° 264° (W) 4,737 13.0 -14.2°
Reaches altitude 10° 20:32:08 10° 266° (W) 3,733 12.2 -14.7°
Maximum altitude 20:41:33 76° 353° (N) 1,563 9.1 -16.4°
Enters shadow 20:49:02 18° 78° (ENE) 3,114 10.1 -17.6°
